Location: Newark
(45.9456°N, 15.4064°E)
Time: 06:56:27
(UTC+00:00)

Transit 2A Rocket - Pass Details

Date: 29 January 2020
Orbit: 591 x 911 km, 66.7° (Epoch: 20 February)

Event Time Altitude Azimuth Distance (km) Brightness Sun altitude
Exits shadow 04:49:37 22° 322° (NW) 1,316 5.8 -16.6°
Drops below altitude 10° 04:52:55 10° 11° (N) 1,975 7.2 -16.0°
Sets 04:55:40 0° 26° (NNE) 2,921 8.2 -15.6°
